TimeAKDT,TemperatureF,Dew PointF,Humidity,Sea Level PressureIn,VisibilityMPH,Wind Direction,Wind SpeedMPH,Gust SpeedMPH,PrecipitationIn,Events,Conditions,WindDirDegrees,DateUTC
12:53 AM,59.0,48.9,69,29.78,10.0,Calm,Calm,-,N/A,,Mostly Cloudy,0,2013-06-23 08:53:00
1:53 AM,59.0,48.0,67,29.77,10.0,Calm,Calm,-,N/A,,Mostly Cloudy,0,2013-06-23 09:53:00
2:53 AM,55.9,48.0,75,29.76,10.0,Calm,Calm,-,N/A,,Mostly Cloudy,0,2013-06-23 10:53:00
3:53 AM,54.0,46.0,75,29.76,10.0,Calm,Calm,-,N/A,,Mostly Cloudy,0,2013-06-23 11:53:00
4:53 AM,52.0,45.0,77,29.76,10.0,Calm,Calm,-,N/A,,Mostly Cloudy,0,2013-06-23 12:53:00
5:53 AM,52.0,45.0,77,29.75,10.0,Calm,Calm,-,N/A,,Mostly Cloudy,0,2013-06-23 13:53:00
6:53 AM,53.1,45.0,74,29.74,10.0,SE,3.5,-,N/A,,Partly Cloudy,130,2013-06-23 14:53:00
7:53 AM,57.9,45.0,62,29.73,10.0,Calm,Calm,-,N/A,,Clear,0,2013-06-23 15:53:00
8:53 AM,62.1,48.0,60,29.73,10.0,WNW,3.5,-,N/A,,Scattered Clouds,300,2013-06-23 16:53:00
9:53 AM,60.1,46.9,62,29.73,10.0,WNW,3.5,-,N/A,,Mostly Cloudy,300,2013-06-23 17:53:00
10:53 AM,63.0,46.0,54,29.72,10.0,Calm,Calm,-,N/A,,Mostly Cloudy,0,2013-06-23 18:53:00
11:53 AM,64.9,41.0,42,29.71,10.0,NW,3.5,-,N/A,,Overcast,320,2013-06-23 19:53:00
12:53 PM,68.0,43.0,40,29.70,10.0,Variable,6.9,-,N/A,,Mostly Cloudy,0,2013-06-23 20:53:00
1:53 PM,72.0,45.0,38,29.70,10.0,NW,5.8,-,N/A,,Clear,310,2013-06-23 21:53:00
2:53 PM,72.0,43.0,35,29.69,10.0,West,8.1,-,N/A,,Clear,260,2013-06-23 22:53:00
3:53 PM,72.0,44.1,37,29.68,10.0,West,8.1,-,N/A,,Clear,260,2013-06-23 23:53:00
4:53 PM,71.1,44.1,38,29.66,10.0,NW,6.9,-,N/A,,Clear,310,2013-06-24 00:53:00
5:53 PM,70.0,44.1,39,29.66,10.0,WSW,5.8,-,N/A,,Scattered Clouds,250,2013-06-24 01:53:00
6:53 PM,70.0,43.0,38,29.65,10.0,Calm,Calm,-,N/A,,Clear,0,2013-06-24 02:53:00
7:53 PM,69.1,43.0,39,29.64,10.0,Calm,Calm,-,N/A,,Mostly Cloudy,0,2013-06-24 03:53:00
8:53 PM,69.1,44.1,40,29.64,10.0,SW,4.6,-,N/A,,Partly Cloudy,220,2013-06-24 04:53:00
9:53 PM,66.9,44.1,44,29.63,10.0,South,3.5,-,N/A,,Clear,180,2013-06-24 05:53:00
10:53 PM,64.9,43.0,45,29.63,10.0,Calm,Calm,-,N/A,,Clear,0,2013-06-24 06:53:00
11:53 PM,64.0,44.1,48,29.63,10.0,East,4.6,-,N/A,,Mostly Cloudy,80,2013-06-24 07:53:00